Location: Unnamed
(54.5186°N, 36.2255°E)
Time: 14:57:26
(UTC+03:00)

ISS - Visible Passes

Search period start: 17 February 2026 00:00
Search period end: 27 February 2026 00:00
Orbit: 413 x 428 km, 51.6° (Epoch: 16 February)

Date Brightness Start Highest point End Pass type
(mag) Time Alt. Az. Time Alt. Az. Time Alt. Az.
17 Feb -1.8 06:06:34 13° SSW 06:08:45 24° SSE 06:11:30 10° E visible
18 Feb -1.6 05:21:28 18° SSE 05:21:47 18° SSE 05:24:11 10° ESE visible
18 Feb -2.8 06:54:54 10° WSW 06:58:06 43° SSE 07:01:18 10° E visible
19 Feb -0.6 04:36:17 11° ESE 04:36:17 11° ESE 04:36:38 10° ESE visible
19 Feb -2.6 06:09:16 21° SW 06:11:02 37° SSE 06:14:10 10° E visible
20 Feb -2.4 05:24:00 30° SSE 05:24:00 30° SSE 05:26:58 10° E visible
20 Feb -3.2 06:57:12 10° WSW 07:00:28 52° S 07:03:44 10° E visible
21 Feb -1.0 04:38:40 16° ESE 04:38:40 16° ESE 04:39:43 10° E visible
21 Feb -3.2 06:11:39 24° WSW 06:13:21 49° S 06:16:36 10° E visible
22 Feb -3.1 05:26:16 44° SSE 05:26:16 44° SSE 05:29:25 10° E visible
22 Feb -3.1 06:59:33 10° W 07:02:47 48° S 07:06:02 10° ESE visible
23 Feb -1.4 04:40:51 21° ESE 04:40:51 21° ESE 04:42:13 10° E visible
23 Feb -3.3 06:13:49 23° WSW 06:15:37 51° S 06:18:53 10° ESE visible
24 Feb -3.4 05:28:22 52° S 05:28:26 52° S 05:31:43 10° ESE visible
24 Feb -2.7 07:01:52 10° W 07:04:59 35° SSW 07:08:04 10° SE visible
25 Feb -1.6 04:42:55 24° ESE 04:42:55 24° ESE 04:44:30 10° E visible
25 Feb -3.1 06:15:53 20° WSW 06:17:48 42° SSW 06:20:59 10° ESE visible
26 Feb -3.4 05:30:26 47° SSW 05:30:36 48° S 05:33:50 10° ESE visible
